Location: Roland
(31.1349°N, 85.4372°W)
Time: 08:08:31
(UTC+00:00)

X-37B - Visible Passes

Search period start: 06 March 2021 00:00
Search period end: 16 March 2021 00:00
Orbit: 383 x 391 km, 45.0° (Epoch: 27 February)

Date Brightness Start Highest point End Pass type
(mag) Time Alt. Az. Time Alt. Az. Time Alt. Az.
06 Mar 2.6 10:35:00 19° S 10:35:00 19° S 10:36:16 10° SSE visible
09 Mar 1.4 01:05:45 10° SSW 01:08:11 37° S 01:08:11 37° S visible
10 Mar 2.3 00:08:12 10° S 00:10:33 19° SE 00:12:55 10° E visible
10 Mar 3.1 01:44:02 10° W 01:45:35 23° W 01:45:35 23° W visible
11 Mar 0.6 00:45:26 10° WSW 00:48:37 79° NW 00:50:31 22° NE visible
12 Mar 2.8 01:24:32 10° WNW 01:27:03 21° NNW 01:27:38 20° N visible
13 Mar 2.0 00:25:33 10° W 00:28:32 36° NNW 00:31:33 10° NE visible
14 Mar 3.4 01:05:27 10° NW 01:07:10 14° NNW 01:08:52 10° NNE visible
